CST,Max TemperatureF,Mean TemperatureF,Min TemperatureF,Max Dew PointF,MeanDew PointF,Min DewpointF,Max Humidity, Mean Humidity, Min Humidity, Max Sea Level PressureIn, Mean Sea Level PressureIn, Min Sea Level PressureIn, Max VisibilityMiles, Mean VisibilityMiles, Min VisibilityMiles, Max Wind SpeedMPH, Mean Wind SpeedMPH, Max Gust SpeedMPH,PrecipitationIn, CloudCover, Events, WindDirDegrees
2012-11-1,47,40,32,33,27,23,72,57,40,30.05,29.97,29.91,10,10,10,14,5,21,0.00,5,,349
2012-11-2,40,34,27,27,25,24,85,66,53,30.17,30.12,30.05,10,10,10,7,3,,0.00,2,,14
2012-11-3,43,40,37,29,27,26,64,59,54,30.22,30.20,30.16,10,10,10,6,1,,0.00,8,,94
2012-11-4,45,37,29,34,31,26,92,72,63,30.23,30.19,30.14,10,10,7,6,1,,0.00,7,,113
2012-11-5,44,41,38,35,32,30,76,70,66,30.20,30.13,29.94,10,10,7,14,4,21,0.00,7,,132
2012-11-6,45,42,39,40,37,33,97,84,66,29.97,29.84,29.76,10,7,2,16,10,23,0.24,8,Rain,286
2012-11-7,45,41,37,35,34,32,86,75,59,30.12,30.07,29.97,10,10,10,7,4,,0.00,8,,292
2012-11-8,56,46,35,37,34,31,85,69,47,30.07,29.98,29.91,10,10,10,17,6,23,0.00,0,,179
2012-11-9,55,46,37,40,37,34,86,71,54,30.05,29.99,29.93,10,10,5,13,6,21,0.00,3,,68
2012-11-10,70,58,45,56,49,40,92,79,61,29.92,29.64,29.47,10,6,2,20,9,25,0.18,5,Rain-Thunderstorm,132
2012-11-11,57,40,23,54,30,14,92,80,62,29.95,29.76,29.52,10,8,2,17,10,25,0.04,8,Rain-Snow,273
2012-11-12,27,24,21,19,16,12,84,68,60,30.29,30.07,29.94,10,10,2,17,12,24,0.00,7,Snow,272
2012-11-13,43,30,18,29,22,15,87,68,43,30.37,30.32,30.28,10,10,7,12,4,17,0.00,0,,174
2012-11-14,51,43,35,34,31,27,79,65,48,30.29,30.23,30.15,10,10,7,8,3,,0.00,2,,161
2012-11-15,54,42,31,33,27,12,76,54,37,30.46,30.25,30.12,10,10,5,13,4,21,0.00,3,,326
2012-11-16,43,33,23,28,20,13,79,57,38,30.49,30.43,30.33,10,10,10,8,3,,0.00,0,,144
2012-11-17,56,44,32,37,34,28,88,65,46,30.34,30.27,30.21,10,10,7,14,6,21,0.00,3,,159
2012-11-18,58,52,45,34,32,31,57,49,37,30.22,30.13,30.07,10,10,10,16,10,22,0.00,3,,161
2012-11-19,59,49,39,40,37,33,90,60,44,30.10,30.05,30.01,10,10,7,12,7,17,0.00,4,,162
2012-11-20,53,44,34,37,34,32,95,75,44,30.17,30.11,30.06,10,9,5,9,2,,0.00,0,,302
2012-11-21,62,49,36,43,37,32,89,60,40,30.06,29.89,29.70,10,10,7,14,4,22,0.00,0,,171
2012-11-22,58,42,25,42,35,18,90,67,50,29.97,29.74,29.61,10,9,3,23,11,34,0.00,1,Rain-Snow,249
2012-11-23,28,23,17,19,15,11,82,70,60,30.36,30.23,29.98,10,9,2,24,17,32,0.00,7,Snow,315
2012-11-24,31,22,12,19,13,9,87,69,50,30.35,30.09,29.81,10,10,10,12,4,16,0.00,2,,166
2012-11-25,32,30,27,24,21,15,74,69,59,30.15,29.96,29.80,10,10,10,16,6,25,0.00,,,301
2012-11-26,26,20,14,12,8,4,74,63,44,30.41,30.34,30.15,10,10,10,15,8,22,0.00,2,,307
2012-11-27,39,27,15,25,17,8,81,68,56,30.34,30.20,30.08,10,10,10,13,4,,0.00,2,,195
2012-11-28,36,31,26,25,22,20,80,70,58,30.34,30.24,30.10,10,10,10,10,6,,0.00,3,,249
2012-11-29,41,32,23,27,25,20,88,72,53,30.11,30.08,30.04,10,9,7,9,2,17,0.00,0,,51
2012-11-30,36,34,32,33,29,26,91,80,74,30.17,30.12,30.07,10,7,4,10,6,17,0.00,7,,105